Hartford, CT

4:10 AM EDT on April 25, 2017 (GMT -0400)
Hartford-brainard

Weather History for KHFD - June, 2013

Change the Weather History Date:

Wednesday, June 5, 2013

  Actual Average Record
Temperature  
Mean Temperature 62 °F -  
Max Temperature 75 °F 75 °F 96 °F (1925)
Min Temperature 52 °F 53 °F 44 °F (1944)
Degree Days  
Heating Degree Days 2    
Growing Degree Days 12 (Base 50)    
Moisture  
Dew Point 47 °F    
Average Humidity 57    
Maximum Humidity 89    
Minimum Humidity 37    
Precipitation  
Precipitation 0.00 in - - ()
Sea Level Pressure  
Sea Level Pressure 30.15 in    
Wind  
Wind Speed 3 mph (South)    
Max Wind Speed 15 mph    
Max Gust Speed 21 mph    
Visibility 10 miles    
Events      
Averages and records for this station are not official NWS values.
T = Trace of Precipitation, MM = Missing Value Source: NWS Daily Summary

Daily Weather History Graph

Daily Weather History Graph

Search for Another Location

Airport or City:

Trip Planner

Search our weather history database for the weather conditions in past years. The results will help you decide how hot, cold, wet, or windy it might be!

Date:

Astronomy

Jun. 05, 2013 Rise Set
Actual Time 5:16 AM EDT 8:21 PM EDT
Civil Twilight 4:43 AM EDT 8:55 PM EDT
Nautical Twilight 4:00 AM EDT 9:38 PM EDT
Astronomical Twilight 3:09 AM EDT 10:30 PM EDT
Moon 3:21 AM EDT (6/5) 5:44 PM EDT (6/5)
Length of Visible Light 16h 12m
Length of Day
15h 05m
Waning Crescent, 8% of the Moon is Illuminated
Jun 5
Waning Crescent
Jun 8
New
Jun 16
First Quarter
Jun 23
Full
Jun 30
Last Quarter

Hourly Weather History & Observations

Time (EDT) Temp. Dew Point Humidity Pressure Visibility Wind Dir Wind Speed Gust Speed Precip Events Conditions
12:53 AM 57.0 °F 46.0 °F 67% 30.11 in 10.0 mi NE 4.6 mph - N/A   Clear
1:53 AM 55.9 °F 45.0 °F 67% 30.12 in 10.0 mi Calm Calm - N/A   Clear
2:53 AM 57.9 °F 44.1 °F 60% 30.12 in 10.0 mi North 6.9 mph - N/A   Clear
3:53 AM 52.0 °F 46.9 °F 83% 30.14 in 10.0 mi Calm Calm - N/A   Clear
4:53 AM 53.1 °F 48.9 °F 86% 30.14 in 10.0 mi Calm Calm - N/A   Clear
5:53 AM 53.1 °F 50.0 °F 89% 30.17 in 10.0 mi Calm Calm - N/A   Clear
6:53 AM 57.0 °F 48.9 °F 74% 30.18 in 10.0 mi Calm Calm - N/A   Clear
7:53 AM 60.1 °F 48.0 °F 64% 30.20 in 10.0 mi North 3.5 mph - N/A   Clear
8:53 AM 64.0 °F 48.9 °F 58% 30.21 in 10.0 mi NNE 3.5 mph - N/A   Clear
9:53 AM 66.0 °F 48.0 °F 52% 30.20 in 10.0 mi Calm Calm - N/A   Clear
10:53 AM 68.0 °F 46.0 °F 45% 30.20 in 10.0 mi ESE 4.6 mph - N/A   Clear
11:53 AM 70.0 °F 48.0 °F 46% 30.18 in 10.0 mi Variable 3.5 mph - N/A   Clear
12:53 PM 71.1 °F 46.0 °F 41% 30.17 in 10.0 mi South 4.6 mph - N/A   Clear
1:53 PM 73.0 °F 46.0 °F 38% 30.15 in 10.0 mi Variable 3.5 mph - N/A   Partly Cloudy
2:53 PM 73.0 °F 45.0 °F 37% 30.13 in 10.0 mi WNW 3.5 mph - N/A   Partly Cloudy
3:53 PM 73.9 °F 46.0 °F 37% 30.10 in 10.0 mi SSW 5.8 mph - N/A   Scattered Clouds
4:53 PM 73.9 °F 46.9 °F 38% 30.11 in 10.0 mi SSW 5.8 mph - N/A   Scattered Clouds
5:53 PM 73.9 °F 48.0 °F 40% 30.09 in 10.0 mi South 15.0 mph 20.7 mph N/A   Clear
6:53 PM 70.0 °F 46.9 °F 44% 30.12 in 10.0 mi SSW 9.2 mph 17.3 mph N/A   Clear
7:53 PM 66.9 °F 46.9 °F 49% 30.12 in 10.0 mi South 9.2 mph - N/A   Clear
8:53 PM 64.9 °F 45.0 °F 48% 30.14 in 10.0 mi South 6.9 mph - N/A   Clear
9:53 PM 63.0 °F 48.0 °F 58% 30.15 in 10.0 mi SE 3.5 mph - N/A   Clear
10:53 PM 60.1 °F 48.9 °F 67% 30.16 in 10.0 mi Calm Calm - N/A   Clear
11:53 PM 59.0 °F 50.0 °F 72% 30.16 in 10.0 mi Calm Calm - N/A   Clear